SIA217 WSSS-RPLL

Flight info

Callsign SIA217
Flight time N/A
Altitude 35000
Route TOMAN5B TOMAN L625 LUSMO N884 LAGOT/N0468F360 N884 LULBU/N0473F350 N884 LUBAN LUBAN7R
Aircraft B752/M-SDE2E3FGHIJ3J4J7RWXY/LB1

Departure

Time 2026-05-05 04:11
Airport Singapore Changi Airport (WSSS)

Arrival

Time N/A
Airport Ninoy Aquino International Airport (RPLL)
Time Latitude Longitude Altitude Speed Heading
2026-05-05 03:44 1.35364 103.99093 48 ft 0 kts 203°
2026-05-05 03:58 1.35365 103.99094 48 ft 1 kts 203°
2026-05-05 03:59 1.35379 103.99099 48 ft 2 kts 203°
2026-05-05 03:59 1.35393 103.99105 47 ft 2 kts 203°
2026-05-05 03:59 1.35406 103.99111 48 ft 2 kts 203°
2026-05-05 03:59 1.35418 103.99116 48 ft 0 kts 203°
2026-05-05 04:00 1.35429 103.99119 48 ft 2 kts 168°
2026-05-05 04:00 1.35442 103.99111 48 ft 2 kts 124°
2026-05-05 04:00 1.35445 103.99106 48 ft 1 kts 108°
2026-05-05 04:00 1.35446 103.99102 48 ft 0 kts 112°
2026-05-05 04:03 1.35446 103.99103 48 ft 0 kts 112°
2026-05-05 04:03 1.35438 103.99120 48 ft 4 kts 113°
2026-05-05 04:03 1.35423 103.99156 47 ft 6 kts 113°
2026-05-05 04:03 1.35403 103.99201 46 ft 7 kts 112°
2026-05-05 04:04 1.35408 103.99244 45 ft 5 kts 53°
2026-05-05 04:04 1.35434 103.99278 44 ft 7 kts 53°
2026-05-05 04:04 1.35466 103.99321 42 ft 8 kts 53°
2026-05-05 04:04 1.35501 103.99365 41 ft 7 kts 51°
2026-05-05 04:05 1.35533 103.99404 41 ft 6 kts 51°
2026-05-05 04:05 1.35565 103.99433 41 ft 5 kts 34°
2026-05-05 04:05 1.35601 103.99453 41 ft 6 kts 25°
2026-05-05 04:05 1.35643 103.99472 40 ft 6 kts 24°
2026-05-05 04:06 1.35687 103.99491 39 ft 6 kts 22°
2026-05-05 04:06 1.35728 103.99507 39 ft 6 kts 22°
2026-05-05 04:06 1.35768 103.99524 38 ft 6 kts 22°
2026-05-05 04:06 1.35810 103.99541 38 ft 6 kts 23°
2026-05-05 04:07 1.35851 103.99558 38 ft 6 kts 23°
2026-05-05 04:07 1.35891 103.99577 38 ft 6 kts 24°
2026-05-05 04:07 1.35932 103.99595 37 ft 6 kts 24°
2026-05-05 04:07 1.35973 103.99613 37 ft 6 kts 24°
2026-05-05 04:08 1.36015 103.99630 36 ft 6 kts 21°
2026-05-05 04:08 1.36061 103.99648 35 ft 7 kts 21°
2026-05-05 04:08 1.36108 103.99670 34 ft 7 kts 35°
2026-05-05 04:08 1.36131 103.99712 33 ft 5 kts 85°
2026-05-05 04:09 1.36126 103.99741 33 ft 3 kts 110°
2026-05-05 04:09 1.36106 103.99777 33 ft 8 kts 127°
2026-05-05 04:09 1.36054 103.99826 33 ft 9 kts 167°
2026-05-05 04:09 1.36023 103.99824 33 ft 0 kts 204°
2026-05-05 04:10 1.36009 103.99818 33 ft 12 kts 204°
2026-05-05 04:10 1.35747 103.99707 36 ft 68 kts 203°
2026-05-05 04:10 1.35130 103.99448 36 ft 122 kts 204°
2026-05-05 04:11 1.34184 103.99048 31 ft 171 kts 203°
2026-05-05 04:11 1.33039 103.98547 315 ft 176 kts 204°
2026-05-05 04:11 1.31926 103.98070 560 ft 171 kts 202°
2026-05-05 04:11 1.30736 103.97578 888 ft 193 kts 203°
2026-05-05 04:12 1.29548 103.97053 1507 ft 189 kts 202°
2026-05-05 04:12 1.28283 103.96526 1692 ft 205 kts 200°
2026-05-05 04:12 1.26905 103.95980 1975 ft 218 kts 202°
2026-05-05 04:12 1.25429 103.95357 2155 ft 239 kts 202°
2026-05-05 04:13 1.23780 103.94912 2442 ft 254 kts 179°
2026-05-05 04:13 1.22020 103.95312 2701 ft 269 kts 149°
2026-05-05 04:13 1.20546 103.96497 3317 ft 270 kts 136°
2026-05-05 04:13 1.19146 103.97758 3893 ft 275 kts 138°
2026-05-05 04:14 1.17720 103.99009 4515 ft 277 kts 138°
2026-05-05 04:14 1.16265 104.00284 5146 ft 279 kts 137°
2026-05-05 04:14 1.14866 104.01646 5766 ft 281 kts 124°
2026-05-05 04:14 1.13933 104.03371 5961 ft 291 kts 113°
2026-05-05 04:15 1.13105 104.05237 6004 ft 287 kts 113°
2026-05-05 04:15 1.12300 104.07040 5927 ft 280 kts 112°
2026-05-05 04:15 1.11522 104.08797 5927 ft 274 kts 112°
2026-05-05 04:15 1.10752 104.10545 5934 ft 278 kts 112°
2026-05-05 04:16 1.09967 104.12333 5934 ft 281 kts 112°
2026-05-05 04:16 1.09186 104.14114 5933 ft 280 kts 113°
2026-05-05 04:16 1.08408 104.15894 5933 ft 280 kts 111°
2026-05-05 04:16 1.08037 104.17802 6071 ft 286 kts 88°
2026-05-05 04:17 1.08089 104.19772 6900 ft 279 kts 89°
2026-05-05 04:17 1.08123 104.21725 7429 ft 285 kts 88°
2026-05-05 04:17 1.08175 104.23682 8110 ft 284 kts 88°
2026-05-05 04:17 1.08235 104.25674 8704 ft 287 kts 88°
2026-05-05 04:18 1.08301 104.27678 8959 ft 299 kts 88°
2026-05-05 04:18 1.08370 104.29748 8938 ft 295 kts 88°
2026-05-05 04:18 1.08441 104.31808 8946 ft 301 kts 88°
2026-05-05 04:18 1.08515 104.33916 8940 ft 308 kts 88°
2026-05-05 04:19 1.08588 104.36017 8933 ft 295 kts 88°
2026-05-05 04:19 1.08658 104.38008 8927 ft 281 kts 88°
2026-05-05 04:19 1.08726 104.39957 8947 ft 283 kts 88°
2026-05-05 04:19 1.08750 104.40631 8952 ft 286 kts 88°